Regional Weather Roundup
Issued by NWS

Home | Current Version | Previous Version | Graphics & Text | Print | Product List | Glossary On
Versions: 1 2 3 4 5 6 7 8 9 10 11 12 13 14 15 16 17 18 19 20 21 22 23 24 25 26 27 28 29 30 31 32 33 34 35 36 37 38 39 40 41 42 43 44 45 46 47 48 49 50
000
ASUS45 KABQ 261610
RWRNM
NEW MEXICO REGIONAL WEATHER ROUNDUP
NATIONAL WEATHER SERVICE ALBUQUERQUE NM
1000 AM MDT SUN MAR 26 2017

NOTE: "FAIR" MEANS FEW OR NO CLOUDS BELOW 12,000 FEET AGL WITH NO
       SIGNIFICANT WEATHER OR OBSTRUCTIONS TO VISION.

      THIS PRODUCT IS RELEASED AS TWO VERSIONS.  ONE VERSION NEAR
      THE TOP OF THE HOUR CONTAINING PRELIMINARY DATA FROM ALBUQUERQUE
      AND OTHER STATIONS.  A FINAL VERSION WITH ADDITIONAL DATA IS
      ISSUED ABOUT 10 MINUTES AFTER THE HOUR.

NMZ501-503-504-510>518-261700-
NORTHWEST PLATEAU/NORTHCENTRAL MOUNTAINS

CITY           SKY/WX    TMP DP  RH WIND       PRES   REMARKS
FARMINGTON     FAIR      46  39  76 W20       29.94S
LOS ALAMOS     FAIR      44  29  55 NE6       29.93S
SANTA FE       FAIR      50  32  50 NW12      29.91S
TAOS             N/A     43  28  56 SW14      29.91R
ANGEL FIRE     CLOUDY    33  29  84 W9G16     29.91R WCI  25

$$
NMZ402-403-502-505>509-261700-
WESTCENTRAL MOUNTAINS/SOUTHWEST MOUNTAINS

CITY           SKY/WX    TMP DP  RH WIND       PRES   REMARKS
GALLUP         CLOUDY    39  32  76 W7        30.02R WCI  34
GRANTS         FAIR      46  32  58 NW16G25   30.02R
SILVER CITY    FAIR      55  26  31 W16       30.04R

$$
NMZ407-409-411-412-261700-
SOUTHERN DESERTS

CITY           SKY/WX    TMP DP  RH WIND       PRES   REMARKS
DEMING         FAIR      59  28  30 NW10      30.02R
LAS CRUCES     FAIR      62  25  24 W14G20    30.01R
HOLLOMAN AFB   FAIR      62  24  23 W7        29.99R
ALAMOGORDO     FAIR      61  21  21 NW13G21   29.97R
T OR C         FAIR      57  22  25 W18       29.97F

$$
NMZ519>523-261700-
CENTRAL VALLEYS/CENTRAL HIGHLANDS

CITY           SKY/WX    TMP DP  RH WIND       PRES   REMARKS
ALBUQUERQUE    FAIR      49  30  48 W3        29.97R
DOUBLE EAGLE   MOSUNNY   48  30  49 W14       29.97S
MORIARTY ARPT  FAIR      52  30  43 W16G23    29.93R
CLINES CORNERS FAIR      46  26  45 W39G46    29.89F
BELEN          FAIR      54  27  35 W14       29.97S
SOCORRO        FAIR      57  25  28 NW10G18   29.96S

$$
NMZ524>526-539-540-261700-
SOUTHCENTRAL MOUNTAINS

CITY           SKY/WX    TMP DP  RH WIND       PRES   REMARKS
RUIDOSO        FAIR      50  18  27 W16G24    29.99R

$$
NMZ527>531-261700-
NORTHEAST HIGHLANDS/NORTHEAST PLAINS

CITY           SKY/WX    TMP DP  RH WIND       PRES   REMARKS
LAS VEGAS      FAIR      51  23  33 NW12      29.82R
RATON          LGT RAIN  40  35  83 N10       29.81R WCI  33
CLAYTON        FAIR      58  35  42 NW23G33   29.72R

$$
NMZ532>537-261700-
EASTCENTRAL PLAINS

CITY           SKY/WX    TMP DP  RH WIND       PRES   REMARKS
TUCUMCARI      FAIR      63  30  28 W26G33    29.74R
CANNON AFB     FAIR      60  28  29 W25G32    29.80F
CLOVIS AIRPORT FAIR      61  30  31 W28G33    29.81S

$$
NMZ028-029-538-261700-
SOUTHEAST PLAINS

CITY           SKY/WX    TMP DP  RH WIND       PRES   REMARKS
ROSWELL        FAIR      67  21  17 NW12G18     N/A
ARTESIA        FAIR      64  27  24 CALM      29.89S
CARLSBAD       FAIR      65  28  24 CALM      29.88S
HOBBS          SUNNY     63  25  23 W16       29.90R


$$



USA.gov is the U.S. government's official web portal to all federal, state and local government web resources and services.